Content
SEND FEEDBACK

Daily
Averages
Monthly
Summary
United Arab Emirates

AJMAN, UNITED ARAB EMIRATES


Home > Middle East > United Arab Emirates
Elevation: 108 feet     Latitude: 25 19N     Longitude: 055 31E

WEATHER
 
SELECT A DAY
Number of Records: 177,915;   Date Range: 7/1/96 - 8/30/14
 
SHARE

PRINT THIS DATA

[ ← Previous Day ]
WEATHER ALMANAC - JANUARY 23, 2013
[ Next Day → ]
[ °C ]   °F
Weather ElementAverageHighLow
Temperature63.9 °F75.2 °F (2:00 pm) (2:41 am)
Dewpoint57.6 °F62.6 °F (7:00 am) (7:00 pm)
Humidity80.2 %100 % (4:00 am)47 % (4:00 pm)
Barometer30.14 in30.22 in (10:00 am)30.09 in (2:00 pm)
Wind Speed6.5 mph13.8 mph (5:00 pm)
Weather ElementAverage
Visibility3 mi
Wind DirectionSSW (200.9 °)

Weather ElementTotal
Precipitation---
Heating Degree Days27.4 (Base 65)
Averaged from 33 records on January 23, 2013
WEATHER CONDITIONS BREAKOUT
WIND DIRECTION BREAKOUT
WEATHER BY HOUR - JANUARY 23, 2013
[ °C ]   °F
Local TimeTemperatureDewpointHumidityBarometerVisibilityWind DirectionWind SpeedGust SpeedPrecipitationEventsConditions
1:00 AM63.0 °F60.0 °F89 %30.15 in2.0 miSSE (150°)5.8 mphMist
1:00 AM62.6 °F60.8 °F94 %30.12 in1.9 miSSE (150°)5.8 mphScattered Clouds
2:00 AM60.8 °F57.2 °F88 %30.12 in1.6 miSE (140°)4.6 mphMist
2:41 AM0.0 °F0.0 °F30.12 in0.3 miSSE (160°)4.6 mph
3:00 AM59.0 °F57.2 °F94 %30.12 in0.3 miSSE (160°)4.6 mphFogFog
4:00 AM58.0 °F58.0 °F100 %30.15 in0.0 miSSE (160°)3.5 mphFogHeavy Fog
4:00 AM59.0 °F57.2 °F94 %30.12 in0.2 miSSE (160°)3.5 mphFogFog
5:00 AM60.8 °F60.8 °F100 %30.12 in0.2 miSouth (180°)5.8 mphFogFog
6:00 AM62.6 °F60.8 °F94 %30.15 in0.2 miSSE (160°)4.6 mphFogFog
7:00 AM62.0 °F62.0 °F99 %30.17 in0.0 miSouth (180°)5.8 mphFogHeavy Fog
7:00 AM62.6 °F62.6 °F100 %30.15 inSouth (180°)5.8 mphFogFog
7:45 AM62.6 °F62.6 °F100 %30.18 in0.7 miSouth (180°)5.8 mphFogPatches of Fog
8:00 AM62.6 °F62.6 °F100 %30.18 in0.7 miSouth (180°)5.8 mphFogPatches of Fog
9:00 AM62.6 °F62.6 °F100 %30.21 in1.0 miSSW (200°)6.9 mphMostly Cloudy
10:00 AM64.0 °F62.0 °F92 %30.22 in1.0 miSSW (200°)6.9 mphMist
10:00 AM64.4 °F62.6 °F94 %30.21 in1.0 miSSW (200°)6.9 mphMostly Cloudy
11:00 AM66.2 °F62.6 °F88 %30.21 in3.1 miSouth (170°)5.8 mphHaze
12:00 PM71.6 °F60.8 °F69 %30.18 in5.0 miSSW (210°)6.9 mphPartly Cloudy
1:00 PM73.0 °F60.0 °F54 %30.15 in5.0 miSW (220°)4.6 mphWidespread Dust
1:00 PM73.4 °F59.0 °F61 %30.12 in5.0 miSW (220°)4.6 mphScattered Clouds
2:00 PM75.2 °F59.0 °F57 %30.09 in5.0 miSSW (210°)5.8 mphScattered Clouds
3:00 PM75.2 °F59.0 °F57 %30.09 in5.0 miWest (280°)12.7 mphScattered Clouds
4:00 PM74.0 °F58.0 °F47 %30.11 in6.0 miWest (270°)12.7 mph
4:00 PM73.4 °F57.2 °F57 %30.09 in6.2 miWest (270°)12.7 mphPartly Cloudy
5:00 PM71.6 °F55.4 °F57 %30.09 in6.2 miWest (270°)13.8 mphPartly Cloudy
6:00 PM69.8 °F60.8 °F73 %30.12 in6.2 miWest (270°)11.5 mphPartly Cloudy
7:00 PM69.0 °F59.0 °F61 %30.14 in6.0 miWest (280°)9.2 mphScattered Clouds
7:00 PM69.8 °F59.0 °F68 %30.12 in6.2 miWest (280°)9.2 mphPartly Cloudy
8:00 PM68.0 °F57.2 °F68 %30.15 inWest (280°)6.9 mphClear
9:00 PM66.2 °F57.2 °F73 %30.15 inNW (310°)3.5 mphClear
10:00 PM61.0 °F55.0 °F75 %30.17 in6.0 mi°2.3 mph
10:00 PM60.8 °F55.4 °F82 %30.15 inVariable2.3 mphClear
11:00 PM62.6 °F57.2 °F82 %30.15 in6.2 miSSE (150°)3.5 mphPartly Cloudy
Hourly data recorded from OMSJ, located miles away from Ajman, United Arab Emirates







STORIES FROM OUR PARTNERS